Flag for Cote d'Ivoire (Ivory Coast) Weather past 2 weeks in Abidjan, Cote d'Ivoire (Ivory Coast)

Now
73 °F

Partly cloudy.


Feels Like: 68 °F
Forecast: 74 / 79 °F
Wind: 7 mph from Southwest

Location: Abidjan Airport

Current Time: Sep 2, 2014 at 3:39:12 AM

Latest Report: Sep 2, 2014 at 3:00 AM


Visibility: 5 mi

Pressure: 29.89 "Hg

Humidity: 100%

Dew point: 73 °F

Location of AbidjanLocation

Historic Weather in Abidjan — Graph

°F

Abidjan temperature yesterday

Maximum temperature yesterday: 82 °F (at 1:00 PM)
Minimum temperature yesterday: 73 °F (at 11:30 PM)
Average temperature yesterday: 77 °F

Past Weeks' High & Low Weather Summary

 TemperatureHumidityPressure
High82 °F (Aug 22, 12:00 PM)100% (Aug 18, 3:30 AM)30.01 "Hg (Aug 18, 3:30 AM)
Low72 °F (Aug 19, 5:30 AM)70% (Aug 22, 12:30 PM)29.83 "Hg (Aug 26, 4:30 PM)
Average76 °F91%29.91 "Hg
* Reported Aug 18 2:00 AM — Sep 2 2:30 AM, Abidjan, Weather by CustomWeather, © 2014

Note: Actual official high and low records may vary slightly from our data, if they occured in-between our weather recording intervals... More about our weather records

Advertising

Abidjan weather history for previous 24 hours

 ConditionsComfort  
Time TempWeatherWind HumidityBarometerVisibility
2:30 AM
Sep 2
75 °FPartly cloudy.8 mph94%29.89 "Hg5 mi
2:00 AM75 °FPartly cloudy.8 mph94%29.89 "Hg5 mi
1:30 AM75 °FPartly cloudy.6 mph94%29.89 "HgN/A
1:00 AM75 °FPartly cloudy.7 mph94%29.92 "HgN/A
12:30 AM75 °FPartly cloudy.6 mph94%29.92 "HgN/A
12:00 AM75 °FPartly cloudy.6 mph94%29.95 "HgN/A
11:30 PM
Sep 1
73 °FPartly cloudy.7 mph100%29.95 "HgN/A
11:00 PM75 °FPartly cloudy.10 mph94%29.95 "HgN/A
10:30 PM75 °FPartly cloudy.8 mph94%29.95 "HgN/A
10:00 PM75 °FPartly cloudy.6 mph100%29.95 "HgN/A
9:30 PM75 °FPartly cloudy.6 mph100%29.95 "HgN/A
9:00 PM77 °FPartly cloudy.6 mph94%29.95 "HgN/A
8:30 PM77 °FPartly cloudy.6 mph89%29.92 "HgN/A
8:00 PM77 °FPartly cloudy.8 mph89%29.92 "HgN/A
7:30 PM77 °FPassing clouds.8 mph89%29.89 "HgN/A
7:00 PM77 °FPassing clouds.8 mph89%29.89 "HgN/A
6:30 PM77 °FPassing clouds.8 mph89%29.89 "HgN/A
6:00 PM77 °FBroken clouds.7 mph89%29.86 "HgN/A
5:30 PM77 °FBroken clouds.9 mph89%29.86 "HgN/A
5:00 PM77 °FBroken clouds.9 mph89%29.86 "HgN/A
4:30 PM79 °FBroken clouds.10 mph84%29.86 "HgN/A
4:00 PM79 °FBroken clouds.13 mph84%29.86 "HgN/A
3:30 PM81 °FBroken clouds.13 mph79%29.86 "HgN/A
3:00 PM81 °FBroken clouds.12 mph79%29.89 "HgN/A
2:30 PM81 °FBroken clouds.14 mph84%29.89 "HgN/A
2:00 PM81 °FMore clouds than sun.14 mph79%29.92 "HgN/A
1:30 PM82 °FBroken clouds.13 mph74%29.92 "HgN/A
1:00 PM82 °FBroken clouds.14 mph74%29.92 "HgN/A
12:30 PM81 °FBroken clouds.13 mph79%29.95 "Hg5 mi
12:00 PM81 °FBroken clouds.12 mph84%29.95 "Hg5 mi
11:30 AM79 °FBroken clouds.12 mph84%29.95 "Hg5 mi
11:00 AM79 °FBroken clouds.9 mph84%29.98 "Hg5 mi
10:30 AM79 °FBroken clouds.8 mph84%29.98 "Hg5 mi
10:00 AM79 °FBroken clouds.8 mph84%29.98 "Hg5 mi
9:30 AM77 °FBroken clouds.8 mph89%29.98 "Hg5 mi
9:00 AM77 °FBroken clouds.8 mph89%29.98 "Hg5 mi
8:30 AM77 °FBroken clouds.7 mph89%29.95 "Hg5 mi
8:00 AM77 °FBroken clouds.7 mph94%29.95 "Hg5 mi
7:30 AM75 °FBroken clouds.6 mph100%29.95 "Hg5 mi
7:00 AM75 °FBroken clouds.6 mph100%29.92 "Hg5 mi
6:30 AM75 °FBroken clouds.5 mph94%29.92 "Hg5 mi
6:00 AM75 °FPartly cloudy.5 mph94%29.92 "HgN/A
5:30 AM75 °FPassing clouds.6 mph94%29.92 "HgN/A
5:00 AM75 °FPassing clouds.5 mph94%29.89 "HgN/A
4:30 AM75 °FPassing clouds.6 mph94%29.89 "HgN/A
4:00 AM75 °FPassing clouds.6 mph94%29.89 "HgN/A
3:30 AM75 °FPassing clouds.6 mph94%29.89 "HgN/A
3:00 AM75 °FPassing clouds.8 mph94%29.89 "HgN/A
Weather by CustomWeather, © 2014

See weather overviewHow to use our weather pages